When you browse on this site, cookies collect data to enhance your experience and personalize the content and advertising you see.
Visit our Privacy Policy to learn more. By continuing to use the site, you agree to this use of cookies and data.
  • In Romania
  • List of Countries
  • For 7 days
  • Water Temperature
  • Satellite Maps
  • Weather Map
  • Weather Widgets
  • user-avatar
    Login

    Hourly Weather Atzitzintla

    Today, 24 April, Wednesday

    Time Temperature Precipitation Wind Pressure Humidity
    00:00 +14°C° 0 mm 1 mps 562 mmHg 81%
    01:00 +13°C° 0 mm 1 mps 562 mmHg 79%
    02:00 +13°C° 0 mm 1 mps 562 mmHg 78%
    03:00 +13°C° 0 mm 1 mps 561 mmHg 76%
    04:00 +13°C° 0 mm 1 mps 561 mmHg 75%
    05:00 +12°C° 0 mm 1 mps 561 mmHg 73%
    06:00 +12°C° 0 mm 1 mps 561 mmHg 72%
    07:00 +15°C° 0 mm 2 mps 563 mmHg 63%
    08:00 +17°C° 0 mm 2 mps 564 mmHg 54%
    09:00 +20°C° 0 mm 3 mps 565 mmHg 45%
    10:00 +21°C° 0 mm 3 mps 566 mmHg 40%
    11:00 +24°C° 0 mm 3 mps 566 mmHg 35%
    12:00 +26°C° 0 mm 3 mps 567 mmHg 30%
    13:00 +26°C° 0.1 mm 4 mps 566 mmHg 31%
    14:00 +26°C° 0.1 mm 4 mps 566 mmHg 32%
    15:00 +26°C° 0.1 mm 4 mps 565 mmHg 33%
    16:00 +25°C° 0.5 mm 4 mps 564 mmHg 36%
    17:00 +24°C° 0.5 mm 3 mps 563 mmHg 39%
    18:00 +22°C° 0.5 mm 3 mps 563 mmHg 42%
    19:00 +20°C° 0.1 mm 3 mps 562 mmHg 47%
    20:00 +19°C° 0.1 mm 2 mps 562 mmHg 52%
    21:00 +18°C° 0.1 mm 1 mps 562 mmHg 57%
    22:00 +17°C° 0 mm 2 mps 562 mmHg 54%
    23:00 +16°C° 0 mm 2 mps 562 mmHg 50%

    Tomorrow, 25 April, Thursday

    Time Temperature Precipitation Wind Pressure Humidity
    00:00 +16°C° 0 mm 3 mps 562 mmHg 47%
    01:00 +14°C° 0 mm 3 mps 561 mmHg 48%
    02:00 +14°C° 0 mm 3 mps 561 mmHg 50%
    03:00 +13°C° 0 mm 3 mps 560 mmHg 52%
    04:00 +13°C° 0 mm 3 mps 560 mmHg 56%
    05:00 +13°C° 0 mm 2 mps 560 mmHg 60%
    06:00 +13°C° 0 mm 2 mps 560 mmHg 63%
    07:00 +15°C° 0 mm 2 mps 562 mmHg 53%
    08:00 +18°C° 0 mm 2 mps 564 mmHg 42%
    09:00 +22°C° 0 mm 1 mps 566 mmHg 32%
    10:00 +23°C° 0 mm 2 mps 566 mmHg 29%
    11:00 +25°C° 0 mm 2 mps 567 mmHg 27%
    12:00 +26°C° 0 mm 2 mps 568 mmHg 24%
    13:00 +26°C° 0.1 mm 3 mps 567 mmHg 26%
    14:00 +26°C° 0.1 mm 3 mps 567 mmHg 28%
    15:00 +26°C° 0.1 mm 3 mps 567 mmHg 31%
    16:00 +24°C° 0.8 mm 3 mps 566 mmHg 38%
    17:00 +22°C° 0.8 mm 3 mps 565 mmHg 45%
    18:00 +20°C° 0.8 mm 3 mps 565 mmHg 53%
    19:00 +19°C° 0.3 mm 2 mps 565 mmHg 64%
    20:00 +17°C° 0.3 mm 2 mps 565 mmHg 74%
    21:00 +16°C° 0.3 mm 2 mps 565 mmHg 85%
    22:00 +15°C° 0.1 mm 2 mps 565 mmHg 86%
    23:00 +15°C° 0.1 mm 1 mps 565 mmHg 87%

    Day after tomorrow, 26 April, Friday

    Time Temperature Precipitation Wind Pressure Humidity
    00:00 +15°C° 0.1 mm 1 mps 565 mmHg 87%
    01:00 +14°C° 0 mm 1 mps 564 mmHg 87%
    02:00 +14°C° 0 mm 1 mps 564 mmHg 87%
    03:00 +13°C° 0 mm 1 mps 563 mmHg 86%
    04:00 +13°C° 0.1 mm 1 mps 563 mmHg 87%
    05:00 +13°C° 0.1 mm 1 mps 564 mmHg 88%
    06:00 +12°C° 0.1 mm 1 mps 564 mmHg 89%
    07:00 +14°C° 0 mm 2 mps 565 mmHg 81%
    08:00 +15°C° 0 mm 2 mps 566 mmHg 72%
    09:00 +17°C° 0 mm 3 mps 567 mmHg 64%
    10:00 +18°C° 0.1 mm 3 mps 567 mmHg 59%
    11:00 +19°C° 0.1 mm 3 mps 568 mmHg 54%
    12:00 +20°C° 0.1 mm 3 mps 568 mmHg 49%
    13:00 +20°C° 0.1 mm 3 mps 567 mmHg 50%
    14:00 +20°C° 0.1 mm 3 mps 567 mmHg 51%
    15:00 +20°C° 0.1 mm 4 mps 566 mmHg 51%
    16:00 +19°C° 0.1 mm 4 mps 566 mmHg 56%
    17:00 +18°C° 0.1 mm 3 mps 565 mmHg 60%
    18:00 +16°C° 0.1 mm 3 mps 565 mmHg 65%
    19:00 +14°C° 0.6 mm 3 mps 565 mmHg 70%
    20:00 +14°C° 0.6 mm 2 mps 565 mmHg 76%
    21:00 +13°C° 0.6 mm 2 mps 565 mmHg 81%
    22:00 +13°C° 0.3 mm 1 mps 565 mmHg 81%
    23:00 +13°C° 0.3 mm 1 mps 565 mmHg 81%

    27 April, Saturday

    Time Temperature Precipitation Wind Pressure Humidity
    00:00 +12°C° 0.3 mm 1 mps 565 mmHg 81%
    01:00 +12°C° 0.1 mm 1 mps 564 mmHg 80%
    02:00 +12°C° 0.1 mm 1 mps 564 mmHg 80%
    03:00 +12°C° 0.1 mm 1 mps 563 mmHg 79%
    04:00 +12°C° 0.1 mm 1 mps 563 mmHg 79%
    05:00 +11°C° 0.1 mm 1 mps 563 mmHg 79%
    06:00 +11°C° 0.1 mm 1 mps 563 mmHg 78%
    07:00 +14°C° 0.1 mm 1 mps 564 mmHg 68%
    08:00 +16°C° 0.1 mm 1 mps 566 mmHg 58%
    09:00 +20°C° 0.1 mm 1 mps 568 mmHg 48%
    10:00 +21°C° 0.3 mm 1 mps 568 mmHg 45%
    11:00 +23°C° 0.3 mm 1 mps 568 mmHg 41%
    12:00 +24°C° 0.3 mm 1 mps 568 mmHg 38%
    13:00 +23°C° 1.2 mm 2 mps 567 mmHg 42%
    14:00 +23°C° 1.2 mm 2 mps 566 mmHg 45%
    15:00 +21°C° 1.2 mm 2 mps 565 mmHg 48%
    16:00 +19°C° 2.4 mm 2 mps 564 mmHg 57%
    17:00 +18°C° 2.4 mm 1 mps 563 mmHg 66%
    18:00 +16°C° 2.4 mm 1 mps 563 mmHg 75%
    19:00 +16°C° 1.4 mm 1 mps 563 mmHg 76%
    20:00 +16°C° 1.4 mm 1 mps 564 mmHg 76%
    21:00 +16°C° 1.4 mm 1 mps 564 mmHg 76%
    22:00 +15°C° 0.6 mm 1 mps 564 mmHg 77%
    23:00 +15°C° 0.6 mm 1 mps 564 mmHg 78%

    28 April, Sunday

    Time Temperature Precipitation Wind Pressure Humidity
    00:00 +15°C° 0.6 mm 1 mps 564 mmHg 79%
    01:00 +14°C° 0.1 mm 1 mps 563 mmHg 79%
    02:00 +14°C° 0.1 mm 1 mps 563 mmHg 79%
    03:00 +13°C° 0.1 mm 1 mps 562 mmHg 79%
    04:00 +13°C° 0 mm 1 mps 562 mmHg 78%
    05:00 +13°C° 0 mm 1 mps 562 mmHg 76%
    06:00 +13°C° 0 mm 1 mps 562 mmHg 75%
    07:00 +15°C° 0 mm 1 mps 564 mmHg 66%
    08:00 +19°C° 0 mm 1 mps 566 mmHg 57%
    09:00 +21°C° 0 mm 1 mps 567 mmHg 48%
    10:00 +22°C° 0 mm 1 mps 568 mmHg 43%
    11:00 +24°C° 0 mm 1 mps 568 mmHg 38%
    12:00 +25°C° 0 mm 2 mps 568 mmHg 34%
    13:00 +25°C° 0 mm 2 mps 567 mmHg 35%
    14:00 +24°C° 0 mm 3 mps 566 mmHg 36%
    15:00 +24°C° 0 mm 3 mps 566 mmHg 37%
    16:00 +21°C° 0.3 mm 3 mps 565 mmHg 43%
    17:00 +20°C° 0.3 mm 2 mps 565 mmHg 49%
    18:00 +18°C° 0.3 mm 2 mps 564 mmHg 56%
    19:00 +18°C° 0.5 mm 2 mps 564 mmHg 60%
    20:00 +18°C° 0.5 mm 1 mps 565 mmHg 64%
    21:00 +16°C° 0.5 mm 1 mps 565 mmHg 68%
    22:00 +16°C° 0 mm 1 mps 565 mmHg 69%
    23:00 +15°C° 0 mm 1 mps 565 mmHg 70%

    29 April, Monday

    Time Temperature Precipitation Wind Pressure Humidity
    00:00 +15°C° 0 mm 1 mps 564 mmHg 71%
    01:00 +14°C° 0 mm 1 mps 564 mmHg 72%
    02:00 +14°C° 0 mm 1 mps 563 mmHg 73%
    03:00 +13°C° 0 mm 1 mps 562 mmHg 73%
    04:00 +12°C° 0 mm 1 mps 562 mmHg 69%
    05:00 +12°C° 0 mm 1 mps 562 mmHg 65%
    06:00 +12°C° 0 mm 1 mps 562 mmHg 61%
    07:00 +15°C° 0 mm 1 mps 564 mmHg 50%
    08:00 +18°C° 0 mm 1 mps 566 mmHg 40%
    09:00 +21°C° 0 mm 1 mps 567 mmHg 29%
    10:00 +22°C° 0 mm 1 mps 568 mmHg 27%
    11:00 +23°C° 0 mm 2 mps 568 mmHg 26%
    12:00 +24°C° 0 mm 2 mps 568 mmHg 24%
    13:00 +24°C° 0 mm 2 mps 568 mmHg 26%
    14:00 +24°C° 0 mm 3 mps 567 mmHg 28%
    15:00 +24°C° 0 mm 3 mps 566 mmHg 30%
    16:00 +22°C° 0.1 mm 3 mps 566 mmHg 38%
    17:00 +21°C° 0.1 mm 3 mps 565 mmHg 46%
    18:00 +19°C° 0.1 mm 4 mps 564 mmHg 54%
    19:00 +18°C° 0 mm 3 mps 564 mmHg 62%
    20:00 +16°C° 0 mm 2 mps 564 mmHg 69%
    21:00 +15°C° 0 mm 1 mps 564 mmHg 77%
    22:00 +14°C° 0 mm 1 mps 564 mmHg 77%
    23:00 +14°C° 0 mm 1 mps 564 mmHg 77%
    Show more